Regional Weather Roundup
Issued by NWS

Home | Current Version | Previous Version | Graphics & Text | Print | Product List | Glossary On
Versions: 1 2 3 4 5 6 7 8 9 10 11 12 13 14 15 16 17 18 19 20 21 22 23 24 25 26 27
000
ASUS45 KCYS 220710
RWRWY

WYOMING REGIONAL WEATHER ROUNDUP
NATIONAL WEATHER SERVICE CHEYENNE WY
100 AM MDT FRI JUL 22 2016

NOTE:  "FAIR" INDICATES FEW OR NO CLOUDS BELOW 12,000 FEET
WITH NO SIGNIFICANT WEATHER AND/OR OBSTRUCTIONS TO VISIBILITY.

WYZ001-220800-
YELLOWSTONE NATIONAL PARK

CITY           SKY/WX    TMP DP  RH WIND       PRES   REMARKS
LK YELLOWSTONE   N/A     50  35  56 CALM      30.40F
W YELLOWSTONE  NOT AVBL

$$
WYZ002>013-054>058-071-098>099-220800-
NORTHERN WYOMING

CITY           SKY/WX    TMP DP  RH WIND       PRES   REMARKS
JACKSON        FAIR      57  39  51 N7        30.30R
CODY           FAIR      72  39  30 SW8       30.15S
GREYBULL       FAIR      82  38  20 W7        30.02R
WORLAND        FAIR      79  42  26 SE5       30.07R
SHERIDAN       FAIR      69  46  43 W3        30.10S
BUFFALO        FAIR      77  40  26 CALM      30.20S
GILLETTE       FAIR      78  33  19 NE8       30.14S
HULETT         FAIR      73  39  29 S3        30.15F
NEWCASTLE      FAIR      73  43  33 N5        30.15S

$$
WYZ014>020-022>026-101>103-220800-
CENTRAL WYOMING

CITY           SKY/WX    TMP DP  RH WIND       PRES   REMARKS
BIG PINEY      FAIR      62  41  46 SE8       30.38S
PINEDALE       FAIR      59  43  55 E3        30.39S
DUBOIS         FAIR      63  30  29 NW9       30.35R
LANDER         FAIR      77  39  25 E7G17     30.18F
RIVERTON       FAIR      76  43  30 S9        30.20S
CASPER         FAIR      75  44  33 SW15      30.23S
DOUGLAS          N/A    N/A N/A N/A MISG      30.20S

$$
WYZ021-027>030-104>119-220800-
SOUTHERN WYOMING

CITY           SKY/WX    TMP DP  RH WIND       PRES   REMARKS
EVANSTON       FAIR      64  38  38 S8        30.37R
KEMMERER         N/A     61  36  39 N8        30.38S
FORT BRIDGER   FAIR      61  37  39 NE3       30.38S
ROCK SPRINGS   FAIR      64  42  44 S8        30.34F
DIXON          FAIR      56  49  78 CALM      30.40R
RAWLINS        FAIR      57  40  52 CALM      30.38S
SARATOGA       FAIR      61  46  59 SE8       30.41S
LARAMIE        FAIR      66  44  45 SW6       30.40S
CHEYENNE       FAIR      74  44  34 NW3       30.29F
TORRINGTON     FAIR      72  52  49 NW7       30.15R
PINE BLUFFS    FAIR      66  55  68 CALM      30.22S

$$




USA.gov is the U.S. government's official web portal to all federal, state and local government web resources and services.